Terminal Aerodrome Forecast
Issued by NWS Raleigh/Durham, NC

Home | Current Version | Previous Version | Text Only | Print | Product List | Glossary On
Versions: 1 2 3 4 5 6 7 8 9 10 11 12 13 14 15 16 17 18 19 20 21 22 23 24 25 26 27 28 29 30 31 32 33 34 35 36 37 38 39 40
000
FTUS42 KRAH 251120
TAFFAY
TAF
KFAY 251120Z 2512/2612 26012KT P6SM BKN150
     FM251300 31013G22KT P6SM SCT150
     FM251800 31010KT P6SM SKC
     FM252300 00000KT P6SM SKC=

USA.gov is the U.S. government's official web portal to all federal, state and local government web resources and services.